Regional Weather Roundup
Issued by NWS

Home | Current Version | Previous Version | Text Only | Print | Product List | Glossary Off
Versions: 1 2 3 4 5 6 7 8 9 10 11 12 13 14 15 16 17 18 19 20 21 22 23 24 25 26 27 28 29 30 31 32 33 34 35 36 37 38 39 40 41 42 43 44 45 46 47 48 49 50

000
ASUS43 KIND 222009
RWRIN

WEATHER ROUNDUP FOR INDIANA
NATIONAL WEATHER SERVICE INDIANAPOLIS IN
300 PM EST THU FEB 22 2018

NOTE: "FAIR" INDICATES FEW OR NO CLOUDS BELOW 12,000 FEET WITH NO
SIGNIFICANT WEATHER AND/OR OBSTRUCTIONS TO VISIBILITY.

* - STATION DOES NOT REPORT WEATHER SUCH AS PRECIPITATION OR FOG.

+ - STATION NOT QUALITY CONTROLLED BY THE NATIONAL WEATHER SERVICE.
    USE DATA WITH CAUTION...ESPECIALLY DEWPOINT AND RELATIVE
    HUMIDITY OBSERVATIONS.

INZ001>003-010>013-019-020-222100-
NORTHWEST INDIANA

CITY           SKY/WX    TMP DP  RH WIND       PRES   REMARKS
GARY /AIRPORT/ CLOUDY    39  32  75 MISG      30.45F
LA PORTE +     CLOUDY    42  34  75 E13       30.45F
MICHIGAN CITY+ CLOUDY    43  32  65 SE6       30.46F
MONTICELLO +   CLOUDY    44  38  79 E12G17    30.39F
RENSSELAER +   CLOUDY    45  36  70 E17G24    30.41F
VALPARAISO     CLOUDY    44  35  70 E18       30.44F

$$

LMZ046-743>745-222100-
SOUTHERN LAKE MICHIGAN

STATION/POSITION TIME  TEMP    WIND        PRES    WAVE
                       AIR SEA DIR/SP/G            HT
                 (UTC) (F)     (DEG/KT/KT) (MB)    (FT)
BURNS HARBOR     1940   36      40/ 12/ 13 1031.5F
MICHIGAN CITY    1940   41      60/ 15/ 17   N/A

$$

INZ004-005-014>016-021>024-222100-
NORTH CENTRAL INDIANA

CITY           SKY/WX    TMP DP  RH WIND       PRES   REMARKS
ELKHART        PTSUNNY   43  30  61 E12G17    30.47F
GOSHEN         PTSUNNY   41  33  73 E15G25    30.47F
LOGANSPORT +   CLOUDY    43  37  81 E16       30.42F
PERU/GRISSOM   CLOUDY    44  43  99 E18G25    30.41F
ROCHESTER +    PTSUNNY   45  37  76 E20G25    30.45S
SOUTH BEND     CLOUDY    42  31  64 E13       30.46F
WARSAW +       CLOUDY    41  34  75 N12       30.45F

$$

INZ006>009-017-018-025>027-222100-
NORTHEAST INDIANA

CITY           SKY/WX    TMP DP  RH WIND       PRES   REMARKS
AUBURN +       CLOUDY    37  34  87 E12       30.49F WCI  30
FORT WAYNE     CLOUDY    41  37  86 E16       30.47F
HUNTINGTON +   CLOUDY    40  36  86 E12G18    30.45F WCI  32
KENDALLVILLE + CLOUDY    38  33  84 E14       30.48F WCI  29

$$

INZ028-029-035-036-043>045-051>053-222100-
WEST CENTRAL INDIANA

CITY           SKY/WX    TMP DP  RH WIND       PRES   REMARKS
CRAWFORDSVL +  CLOUDY    42  42  99 E17G23      N/A
GREENCASTLE +  CLOUDY    43  37  81 E10       30.37F
LAFAYETTE      CLOUDY    44  40  85 E17       30.38F
TERRE HAUTE    CLOUDY    45  40  82 E14       30.36F

$$

INZ030>032-037>040-046>048-054>057-064-065-222100-
CENTRAL INDIANA

CITY           SKY/WX    TMP DP  RH WIND       PRES   REMARKS
ANDERSON       CLOUDY    43  37  81 E17       30.41F
COLUMBUS       CLOUDY    41 N/A N/A E9        30.40F
GREENWOOD *+   CLOUDY    41 -47   2 E8        30.40F
INDIANAPOLIS   CLOUDY    44  39  82 E17       30.39F
-EAGLE CREEK   CLOUDY    44  37  76 E14G23    30.39F
KOKOMO +       CLOUDY    43  39  86 E17       30.42F
MARION +       CLOUDY    42  38  84 E13G18    30.43F FOG
MT COMFORT *+  CLOUDY    43  41  93 E14       30.40F
SHELBYVILLE    CLOUDY    45  39  79 E17       30.38F
ZIONSVILLE +   CLOUDY    44  41  88 E13       30.39F

$$

INZ033-034-041-042-049-050-058-059-222100-
EAST CENTRAL INDIANA

CITY           SKY/WX    TMP DP  RH WIND       PRES   REMARKS
MUNCIE         CLOUDY    46  40  79 E18       30.41F
RICHMOND +     CLOUDY    43  41  93 E14       30.40F

$$

INZ060-061-067>069-081>083-085>088-222100-
SOUTHWEST INDIANA

CITY           SKY/WX    TMP DP  RH WIND       PRES   REMARKS
EVANSVILLE     CLOUDY    49  48  97 E7        30.34F
HUNTINGBURG +  CLOUDY    48  46  93 MISG      30.35F
WASHINGTON +   CLOUDY    46  45  94 E9        30.36S

$$

INZ062-063-066-070>080-084-089>092-222100-
SOUTH CENTRAL AND SOUTHEAST INDIANA

CITY           SKY/WX    TMP DP  RH WIND       PRES   REMARKS
BATESVILLE +   CLOUDY    43  43 100 MISG      30.39F
BEDFORD +      CLOUDY    45  41  87 E7        30.36F
BLOOMINGTON    CLOUDY    45  41  86 E8        30.36F
FRENCH LICK *+ CLOUDY    45 N/A N/A E8        30.36S
MADISON *+     CLOUDY    45  43  93 E7        30.39F
NORTH VERNON + CLOUDY    43  41  93 E9        30.39F
SEYMOUR +      CLOUDY    46  43  87 E10       30.38F

$$





USA.gov is the U.S. government's official web portal to all federal, state and local government web resources and services.